Home   Weather   São Paulo   Past weeks

Flag for Brazil Past Weather in São Paulo, São Paulo, Brazil — Yesterday and Last 2 Weeks

Now
82 °F

Sunny.


Feels Like: 84 °F
Forecast: 67 / 89 °F
Wind: 5 mph from East

Location: Sao Paulo Airport

Current Time: Feb 20, 2017 at 10:34:17 am

Latest Report: Feb 20, 2017 at 10:00 am


Visibility: 10 mi

Pressure: 30.18 "Hg (27.67 "Hg at 765m altitude)

Humidity: 55%

Dew Point: 64 °F

Location of São PauloLocation

Past Weather in São Paulo — Graph

°F

São Paulo Temperature Yesterday

Maximum temperature yesterday: 91 °F (at 2:00 pm)
Minimum temperature yesterday: 72 °F (at 6:00 am)
Average temperature yesterday: 79 °F

High & Low Weather Summary for the Past Weeks

 TemperatureHumidityPressure
High93 °F (Feb 17, 4:00 pm)88% (Feb 6, 9:00 pm)30.24 "Hg (Feb 6, 9:00 pm)
Low66 °F (Feb 9, 5:00 am)28% (Feb 18, 3:00 pm)29.86 "Hg (Feb 6, 5:00 am)
Average77 °F65%30.05 "Hg
* Reported Feb 5 10:00 am — Feb 20 9:00 am, São Paulo, Weather by CustomWeather, © 2017

Note: Actual official high and low records may vary slightly from our data, if they occured in-between our weather recording intervals... More about our weather records

Advertising

São Paulo Weather History for the Previous 24 Hours

Scroll right to see more
 ConditionsComfort  
Time TempWeatherWind HumidityBarometerVisibility
9:00 am
Mon, Feb 20
79 °FSunny.6 mph61%30.18 "Hg10 mi
8:00 am75 °FSunny.7 mph69%30.15 "Hg10 mi
7:00 am72 °FSunny.5 mph78%30.15 "Hg10 mi
6:00 am72 °FSunny.3 mph78%30.12 "Hg10 mi
3:00 am70 °FMild.6 mph83%30.12 "Hg6 mi
2:00 am72 °FClear.9 mph78%30.12 "Hg10 mi
1:00 am72 °FClear.8 mph78%30.12 "Hg10 mi
12:00 am73 °FClear.8 mph74%30.15 "Hg10 mi
11:03 pm
Sun, Feb 19
72 °FClear.7 mph78%30.15 "Hg10 mi
10:00 pm75 °FClear.8 mph69%30.15 "Hg10 mi
9:00 pm75 °FClear.7 mph57%30.12 "Hg10 mi
8:00 pm75 °FClear.8 mph61%30.09 "Hg10 mi
7:00 pm75 °FClear.12 mph57%30.09 "Hg10 mi
6:00 pm81 °FPassing clouds.12 mph58%30.07 "HgN/A
5:00 pm84 °FPassing clouds.15 mph58%30.07 "HgN/A
4:00 pm88 °FPassing clouds.12 mph52%30.07 "HgN/A
3:00 pm86 °FScattered clouds.16 mph59%30.07 "HgN/A
2:00 pm91 °FPassing clouds.2 mph34%30.09 "HgN/A
1:00 pm88 °FPassing clouds.6 mph38%30.12 "HgN/A
12:00 pm88 °FScattered clouds.8 mph40%30.12 "HgN/A
11:00 am86 °FPassing clouds.6 mph43%30.12 "HgN/A
10:00 am84 °FPassing clouds.5 mph51%30.12 "HgN/A
Weather by CustomWeather, © 2017

See weather overviewHow to use our weather pages